Flag for Canada Weather past 2 weeks in Iqaluit, Nunavut Territory, Canada

Now
0 °F

Light snow. Overcast.


Feels Like: -8 °F
Forecast: 2 / 16 °F
Wind: 3 mph from Northwest

Location: Iqaluit


UV Index: 0 (Low)

Visibility: 6 mi


Pressure: 29.78 "Hg

Humidity: 78%

Dew point: -6 °F

Location of IqaluitLocation

Historic Weather in Iqaluit

°F

Iqaluit temperature yesterday

Maximum temperature yesterday: 5 °F (at 4:00 PM)
Minimum temperature yesterday: -15 °F (at 5:00 AM)
Average temperature yesterday: -3 °F

Past Weeks' High & Low Weather Summary

 TemperatureHumidityPressure
High16 °F (Apr 9, 1:00 PM)85% (Apr 3, 1:00 AM)30.38 "Hg (Apr 3, 1:00 AM)
Low-18 °F (Apr 5, 5:00 AM)50% (Apr 1, 10:00 AM)29.04 "Hg (Apr 10, 11:00 AM)
Average1 °F68%29.87 "Hg
* Reported Apr 1 3:00 AM — Apr 16 3:00 AM, Iqaluit, Weather by CustomWeather, © 2014

Note: Actual official high and low records may vary slightly from our data, if they occured in-between our weather recording intervals... More about our weather records

Advertising

Historic Weather Conditions — Data for Previous 24 hours

 ConditionsComfort  
Time TempWeatherWind HumidityBarometerVisibility
3:00 AM
Apr 16
0 °FSnow flurries. Ice fog.2 mph71%29.80 "Hg12 mi
2:00 AM-2 °FSnow flurries. Mostly cloudy.No wind77%29.83 "Hg12 mi
1:00 AM0 °FMostly cloudy.No wind78%29.85 "Hg12 mi
12:00 AM-2 °FSnow flurries. Overcast.No wind84%29.87 "Hg12 mi
11:00 PM
Apr 15
0 °FSnow flurries. Ice fog.No wind78%29.89 "Hg12 mi
10:00 PM0 °FSnow flurries. Passing clouds.6 mph78%29.90 "Hg15 mi
9:00 PM1 °FPassing clouds.5 mph65%29.92 "Hg15 mi
7:00 PM3 °FPartly sunny.2 mph66%29.93 "Hg15 mi
6:00 PM3 °FOvercast.2 mph60%29.95 "Hg20 mi
5:00 PM5 °FPartly sunny.3 mph51%29.95 "Hg20 mi
4:00 PM5 °FPartly sunny.No wind51%29.96 "Hg20 mi
3:00 PM3 °FPartly sunny.3 mph55%29.98 "Hg30 mi
2:00 PM3 °FPartly sunny.5 mph55%29.98 "Hg30 mi
1:00 PM3 °FPartly sunny.3 mph55%29.99 "Hg30 mi
12:00 PM1 °FPartly sunny.3 mph55%30.01 "Hg30 mi
11:00 AM-2 °FScattered clouds.No wind71%30.02 "Hg30 mi
10:00 AM-6 °FPartly sunny.2 mph70%30.02 "Hg30 mi
9:00 AM-9 °FScattered clouds.2 mph70%30.02 "Hg30 mi
8:00 AM-11 °FScattered clouds.2 mph70%30.02 "Hg30 mi
7:00 AM-6 °FPassing clouds.3 mph59%30.02 "Hg30 mi
6:00 AM-9 °FPassing clouds.No wind70%30.03 "Hg30 mi
5:00 AM-15 °FPassing clouds.No wind76%30.03 "Hg30 mi
4:15 AM-13 °FPassing clouds.2 mph69%30.02 "Hg15 mi
Weather by CustomWeather, © 2014

See weather overview